Preview of NWS' New Version of Forecast
This preview is not operational and should not be used for support decisions.

Regional Weather Roundup (RWR)

Issued by National Weather Service (NWS)

                            
000
ASUS45 KBOU 231710
RWRCO 

WEATHER ROUNDUP FOR COLORADO
NATIONAL WEATHER SERVICE DENVER/BOULDER CO
1100 AM MDT SAT MAR 23 2019

NOTE: "FAIR" INDICATES FEW OR NO CLOUDS BELOW 12000 FEET WITH NO
SIGNIFICANT WEATHER AND/OR OBSTRUCTIONS TO VISIBILITY.

COZ001>005-013-030-031-231800-
...NORTHWEST COLORADO...
  
CITY           SKY/WX    TMP DP  RH WIND       PRES   REMARKS
CRAIG          FAIR      37  33  85 SW6       30.11R                  
HAYDEN         FAIR      35  29  78 SW6       30.11S WCI  30          
MEEKER         CLOUDY    35  32  88 CALM      30.12R                  
RANGELY        CLOUDY    39  32  76 CALM      30.12S                  
RABBIT EARS PA SNOW     N/A N/A N/A W9G22     30.06R VSB<1/4          
STEAMBOAT SPGS PTSUNNY   35  30  82 CALM      30.09S                  
WALDEN         CLOUDY    32  19  59 E3        30.05S                  
$$

COZ006>008-011-231800-
...WEST CENTRAL VALLEYS...
  
CITY           SKY/WX    TMP DP  RH WIND       PRES   REMARKS
GRAND JUNCTION CLOUDY    43  36  76 SE6       30.13S                  
MONTROSE       CLOUDY    38  33  82 NW3       30.16S                  
EAGLE          FAIR      42  28  57 NW10G16   30.10F                  
RIFLE          LGT RAIN  40  35  83 N3        30.13S                  
DELTA          CLOUDY    43  35  74 CALM      30.15R                  
NUCLA          FAIR      43  32  65 CALM      30.17S                  
$$

COZ017>023-064>068-231800-
...SOUTHWEST COLORADO...
  
CITY           SKY/WX    TMP DP  RH WIND       PRES   REMARKS
DURANGO        FAIR      36  29  75 CALM      30.13S                  
CORTEZ         PTSUNNY   44  33  65 CALM      30.15S                  
PAGOSA SPRINGS FAIR      32  26  77 SW3       30.15R                  
TELLURIDE      CLOUDY    32  27  80 W9        30.16S WCI  24          
WOLF CREEK PAS FAIR      19  19 100 S12       30.17R WCI   7          
$$

COZ009-010-012-014-032>034-037-058>063-231800-
...CENTRAL COLORADO...
  
CITY           SKY/WX    TMP DP  RH WIND       PRES   REMARKS
ASPEN          FLURRIES  35  26  69 VRB5      30.10R WCI  31          
BUENA VISTA    PTSUNNY   41  18  40 NW14      30.01S                  
COPPER MTN     CLOUDY    23  18  80 NW20G30   30.06R HAZE    WCI   8  
BERTHOUD PASS  CLOUDY    14   3  62 NW37G55   29.97S WCI  -9          
COTTONWOOD PAS CLOUDY    32  14  47 W16G30    30.03S WCI  21          
GUNNISON       MIX PCPN  32  26  78 CALM      30.10S                  
GRANBY         CLOUDY    32  24  72 W15       30.06R WCI  21          
KREMMLING      CLOUDY    34  27  75 W7        30.08S WCI  28          
LEADVILLE      LGT SNOW  26  18  71 NW15G23   30.05S WCI  14          
MONARCH PASS   CLOUDY    19  16  86 W36G45    30.12R WCI  -1          
SALIDA         FAIR      44  18  34 W18       30.08S                  
SUNLIGHT       LGT SNOW N/A N/A N/A MISG      30.15R VSB 3/4          
WILKERSON PASS FAIR      28   9  43 W5        30.03S WCI  23          
$$

COZ069>075-231800-
...SAN LUIS VALLEY/SANGRE DE CRISTO MOUNTAINS...
  
CITY           SKY/WX    TMP DP  RH WIND       PRES   REMARKS
ALAMOSA        FAIR      39  16  39 SE5       30.07S                  
DEL NORTE      FAIR      42  17  36 W12       30.07S                  
LA VETA PASS   NOT AVBL                                               
SAGUACHE       CLOUDY    37  21  52 CALM      30.07R                  
$$

COZ035-036-038>040-231800-
...NORTHERN COLORADO FRONT RANGE...
  
CITY           SKY/WX    TMP DP  RH WIND       PRES   REMARKS
DENVER INTL AP CLOUDY    39  36  89 E6        29.93F                  
AURORA         PTSUNNY   37  37 100 SE5       29.95S                  
FRONT RANGE AP NOT AVBL                                               
ERIE MUNI ARPT CLOUDY    44  34  67 SE12      29.98S                  
BOULDER MUN AP CLOUDY    45  32  61 E7        29.91S                  
CENTENNIAL     PTSUNNY   39  34  82 E10       29.94S                  
BROOMFIELD     NOT AVBL                                               
FORT COLLINS   LGT RAIN  42  36  79 S13       29.93R                  
LONGMONT       CLOUDY    47  35  61 SE8       29.94S                  
$$

COZ041-046-047-076>085-087-088-231800-
...PIKES PEAK/PALMER DIVIDE AND SOUTHERN FOOTHILLS...
  
CITY           SKY/WX    TMP DP  RH WIND       PRES   REMARKS
COLO. SPRINGS  FAIR      43  30  60 VRB3      29.95S                  
A. F. ACADEMY  CLOUDY    41  29  63 CALM      29.92S                  
SCHRIEVER AFB  NOT AVBL                                               
CHEYENNE MTN   NOT AVBL                                               
ELLICOTT         N/A    N/A N/A N/A N8        29.94S                  
FALCON         PTSUNNY   37  30  76 NE5       29.96R                  
FORT CARSON    NOT AVBL                                               
LIMON          LGT SNOW  33  33 100 NW20      29.93S FOG     WCI  21  
MONUMENT HILL  FAIR      32  30  93 MISG      29.96R                  
CANON CITY     FAIR      55  18  22 W23G36    29.92S                  
WALSENBURG     NOT AVBL                                               
TRINIDAD       FAIR      54  21  27 NW20G28   29.95F                  
$$

COZ042>045-048>051-090-091-231800-
...NORTHEAST COLORADO...
  
CITY           SKY/WX    TMP DP  RH WIND       PRES   REMARKS
GREELEY ARPT   LGT RAIN  43  34  70 NW23G31   29.95R                  
AKRON          CLOUDY    38  36  92 NW10      29.90S                  
BURLINGTON     LGT RAIN  42  38  85 NW13      29.88R                  
WRAY           CLOUDY    43  43 100 N6        29.89S                  
YUMA           RAIN      39  37  93 NW8       29.89S                  
STERLING       CLOUDY    37  37 100 N8        29.91S                  
HOLYOKE        FOG       43  41  93 E9        29.90S VSB<1/4          
FORT MORGAN    LGT RAIN  36  34  93 NW13      29.93S                  
$$

COZ086-089-092>099-231800-
...SOUTHEAST COLORADO...
  
CITY           SKY/WX    TMP DP  RH WIND       PRES   REMARKS
PUEBLO         FAIR      47  36  65 VRB5      29.95S                  
LA JUNTA       CLOUDY    50  37  61 NW14G22   29.96S                  
LAMAR          CLOUDY    48  39  71 NW15G25   29.92S                  
SPRINGFIELD      N/A     49  34  56 NW15      29.94R                  
$$